GW6786 Weather Reports


time (UTC)temp
C
wind
direction
speed
KPH
gust
KPH
rain 1hr
cm
rain 24hr
cm
rain mn
cm
humidity
%
barometer
mb
20260504141105 8 246 9.7 20.9 0.00 0.79 0.00 87 1017.2
20260504140604 8 238 6.4 12.9 0.00 0.79 0.00 87 1017.1
20260504140104 8 251 6.4 16.1 0.00 0.79 0.00 86 1017.1
20260504130604 10 199 8.0 25.7 0.00 0.79 0.79 88 1017.1
20260504110105 13 193 3.2 8.0 0.08 0.64 0.64 94 1017.3
20260504100604 13 326 4.8 19.3 0.00 0.56 0.56 91 1016.3
20260504090105 13 305 6.4 11.3 0.00 0.56 0.56 92 1016.2
20260504081605 13 309 4.8 14.5 0.00 0.56 0.56 91 1016.0
20260504081104 13 312 6.4 14.5 0.00 0.56 0.56 91 1016.0
20260504080604 13 298 8.0 16.1 0.00 0.56 0.56 92 1016.0
20260504080104 13 323 9.7 16.1 0.00 0.56 0.56 91 1016.0
20260504070104 13 331 4.8 19.3 0.00 0.56 0.56 91 1015.7
20260504060104 14 303 8.0 16.1 0.00 0.56 0.56 91 1015.7
20260504050604 14 309 6.4 16.1 0.00 0.56 0.56 91 1015.8
20260504045604 14 295 8.0 32.2 0.00 0.56 0.56 90 1015.9
20260504044604 14 259 8.0 20.9 0.00 0.56 0.56 91 1015.8
20260504043604 14 321 9.7 20.9 0.00 0.56 0.56 90 1015.8
20260504043104 14 319 4.8 19.3 0.00 0.56 0.56 90 1015.9
20260504040604 14 275 9.7 19.3 0.00 0.56 0.56 91 1015.8
20260504040104 14 321 9.7 19.3 0.00 0.56 0.56 92 1015.8
20260504035604 13 258 8.0 16.1 0.00 0.56 0.56 92 1015.9
20260504035105 13 288 11.3 16.1 0.00 0.56 0.56 92 1015.8
20260504034104 13 270 8.0 24.1 0.00 0.56 0.56 92 1015.9
20260504033604 13 257 11.3 24.1 0.00 0.56 0.56 92 1015.9
20260504032604 13 314 8.0 16.1 0.00 0.56 0.56 92 1016.2
20260504032104 13 276 6.4 20.9 0.00 0.56 0.56 92 1016.1
20260504031604 13 312 4.8 20.9 0.00 0.56 0.56 92 1016.2
20260504031104 13 322 9.7 20.9 0.00 0.56 0.56 93 1016.4
20260504030604 13 297 14.5 20.9 0.00 0.56 0.56 93 1016.5
20260504030104 13 244 9.7 20.9 0.00 0.56 0.56 93 1016.4
20260504025604 13 294 6.4 24.1 0.03 0.56 0.56 94 1016.5
20260504025104 14 330 11.3 24.1 0.05 0.56 0.56 94 1016.6
20260504024104 13 247 8.0 25.7 0.08 0.56 0.56 96 1016.6
20260504023604 13 314 8.0 25.7 0.08 0.56 0.56 96 1016.6
20260504023104 13 253 11.3 25.7 0.08 0.56 0.56 96 1016.6
20260504022104 12 279 11.3 20.9 0.08 0.56 0.56 95 1016.7
20260504021604 12 262 9.7 20.9 0.08 0.56 0.56 96 1016.9
20260504021104 12 264 11.3 20.9 0.08 0.56 0.56 95 1017.0
20260504020604 12 302 4.8 20.9 0.08 0.56 0.56 95 1017.1
20260504020104 12 266 9.7 19.3 0.08 0.56 0.56 95 1017.4
20260504015604 12 252 6.4 19.3 0.05 0.53 0.53 95 1017.5
20260504015104 12 279 9.7 20.9 0.05 0.51 0.51 94 1017.6
20260504014104 12 257 12.9 24.1 0.00 0.48 0.48 94 1017.7
20260504013603 12 260 11.3 24.1 0.00 0.48 0.48 94 1017.8
20260504013104 12 269 9.7 20.9 0.00 0.48 0.48 94 1017.7
20260504012604 12 243 11.3 24.1 0.00 0.48 0.48 94 1017.9
20260504012103 12 296 8.0 24.1 0.00 0.48 0.48 94 1018.0
20260504011603 12 264 14.5 29.0 0.00 0.48 0.48 94 1018.0
20260504011104 12 269 8.0 29.0 0.00 0.48 0.48 94 1018.2
20260504010604 12 267 16.1 35.4 0.00 0.48 0.48 94 1018.1
20260504010105 12 232 9.7 35.4 0.00 0.48 0.48 94 1018.2
20260504005104 12 253 11.3 32.2 0.00 0.48 0.48 95 1018.2
20260504004604 12 277 9.7 32.2 0.03 0.48 0.48 95 1018.2
20260504004105 12 253 11.3 29.0 0.03 0.48 0.48 95 1018.2
20260504003604 12 253 11.3 29.0 0.03 0.48 0.48 95 1018.1
20260504003105 12 270 11.3 29.0 0.05 0.48 0.48 95 1018.1
20260504002604 12 260 11.3 29.0 0.05 0.48 0.48 95 1018.1
20260504001604 12 276 19.3 27.4 0.10 0.48 0.48 95 1018.1
20260504000604 12 269 11.3 27.4 0.13 0.48 0.48 95 1018.1
20260504000104 12 292 8.0 24.1 0.18 0.48 0.48 95 1018.1
20260503235104 12 264 11.3 27.4 0.28 0.48 0.48 95 1018.0
20260503234104 11 259 11.3 27.4 0.33 0.46 0.46 95 1018.1
20260503233605 11 256 14.5 27.4 0.38 0.46 0.46 94 1018.1
20260503233105 11 283 9.7 24.1 0.36 0.43 0.43 94 1018.1
20260503232104 11 273 8.0 27.4 0.36 0.41 0.41 94 1018.2
20260503231604 11 286 14.5 27.4 0.33 0.38 0.38 94 1018.2
20260503231105 11 265 9.7 16.1 0.33 0.36 0.36 94 1018.2
20260503230604 11 263 8.0 24.1 0.36 0.36 0.36 94 1018.2
20260503230104 11 248 9.7 24.1 0.30 0.30 0.30 93 1018.1
20260503225604 11 255 9.7 24.1 0.25 0.25 0.25 93 1018.2
20260503225104 11 288 9.7 24.1 0.20 0.20 0.20 93 1018.1
20260503224605 11 274 9.7 16.1 0.15 0.15 0.15 93 1018.1
20260503224104 11 289 6.4 19.3 0.13 0.13 0.13 92 1018.0
20260503223604 11 264 8.0 25.7 0.08 0.08 0.08 92 1018.1
20260503223104 11 262 9.7 25.7 0.05 0.05 0.05 92 1018.1
20260503222104 11 261 12.9 25.7 0.05 0.05 0.05 91 1018.1
20260503221605 12 270 17.7 25.7 0.05 0.05 0.05 90 1018.0
20260503220604 12 260 9.7 20.9 0.00 0.00 0.00 88 1018.1
20260503215605 12 248 9.7 20.9 0.00 0.00 0.00 88 1018.1
20260503215104 12 235 8.0 24.1 0.00 0.00 0.00 88 1018.2
20260503214605 12 259 16.1 24.1 0.00 0.00 0.00 86 1018.2
20260503214104 12 242 11.3 24.1 0.00 0.00 0.00 85 1018.0
20260503213604 13 241 9.7 19.3 0.00 0.00 0.00 83 1018.1
20260503212605 13 261 9.7 16.1 0.00 0.00 0.00 81 1018.0
20260503212104 13 259 9.7 16.1 0.00 0.00 0.00 81 1018.0
20260503211604 13 256 9.7 20.9 0.00 0.00 0.00 80 1017.9
20260503211104 13 247 11.3 20.9 0.00 0.00 0.00 80 1018.0
20260503210605 13 254 11.3 20.9 0.00 0.00 0.00 80 1018.0
20260503210105 13 260 9.7 19.3 0.00 0.00 0.00 80 1017.8
20260503205604 13 249 12.9 16.1 0.00 0.00 0.00 80 1017.8
20260503205104 13 254 8.0 12.9 0.00 0.00 0.00 79 1017.7
20260503204604 13 263 8.0 16.1 0.00 0.00 0.00 79 1017.7
20260503204104 13 258 11.3 16.1 0.00 0.00 0.00 79 1017.6
20260503203604 13 252 9.7 12.9 0.00 0.00 0.00 79 1017.6
20260503203104 13 267 8.0 12.9 0.00 0.00 0.00 79 1017.6
20260503202604 13 266 8.0 12.9 0.00 0.00 0.00 79 1017.6
20260503202104 13 256 8.0 12.9 0.00 0.00 0.00 80 1017.6
20260503201605 13 267 8.0 14.5 0.00 0.00 0.00 80 1017.5
20260503200605 13 256 8.0 14.5 0.00 0.00 0.00 80 1017.5
20260503200105 13 264 4.8 14.5 0.00 0.00 0.00 80 1017.5
20260503195604 13 265 6.4 16.1 0.00 0.00 0.00 79 1017.4
20260503195104 13 245 9.7 16.1 0.00 0.00 0.00 80 1017.5
20260503194604 13 261 6.4 14.5 0.00 0.00 0.00 80 1017.5
20260503194104 13 245 4.8 14.5 0.00 0.00 0.00 80 1017.6
20260503193604 13 258 9.7 14.5 0.00 0.00 0.00 80 1017.5
20260503193104 13 252 8.0 12.9 0.00 0.00 0.00 80 1017.4
20260503192604 13 248 6.4 14.5 0.00 0.00 0.00 80 1017.4
20260503192104 13 256 8.0 14.5 0.00 0.00 0.00 80 1017.3
20260503191604 13 252 4.8 16.1 0.00 0.00 0.00 80 1017.4
20260503191104 13 246 8.0 16.1 0.00 0.00 0.00 79 1017.4
20260503184604 13 258 8.0 12.9 0.00 0.00 0.00 77 1017.5
20260503184104 14 257 6.4 12.9 0.00 0.00 0.00 77 1017.5
20260503183604 14 254 8.0 12.9 0.00 0.00 0.00 76 1017.5
20260503183104 14 254 9.7 12.9 0.00 0.00 0.00 76 1017.6
20260503182604 14 263 8.0 12.9 0.00 0.00 0.00 75 1017.5
20260503182104 15 240 6.4 12.9 0.00 0.00 0.00 74 1017.5
20260503181604 15 252 6.4 11.3 0.00 0.00 0.00 73 1017.4
20260503181104 15 269 4.8 11.3 0.00 0.00 0.00 73 1017.4
20260503180605 15 259 3.2 11.3 0.00 0.00 0.00 73 1017.3
20260503180105 15 280 3.2 11.3 0.00 0.00 0.00 73 1017.3
20260503175604 15 269 4.8 11.3 0.00 0.00 0.00 73 1017.3
20260503175104 15 294 3.2 14.5 0.00 0.00 0.00 73 1017.3
20260503174104 15 316 4.8 14.5 0.00 0.00 0.00 73 1017.4
20260503173104 15 313 3.2 9.7 0.00 0.00 0.00 73 1017.3
20260503172604 15 292 4.8 9.7 0.00 0.00 0.00 73 1017.4
20260503172104 15 250 3.2 8.0 0.00 0.00 0.00 73 1017.4
20260503171604 15 250 3.2 12.9 0.00 0.00 0.00 72 1017.4
20260503170604 15 296 4.8 14.5 0.00 0.00 0.00 71 1017.4
20260503170104 15 297 6.4 14.5 0.00 0.00 0.00 71 1017.5
20260503160104 15 309 9.7 19.3 0.00 0.00 0.00 74 1018.1
20260503150604 15 310 9.7 20.9 0.00 0.00 0.00 75 1018.5
20260503150104 15 306 11.3 24.1 0.00 0.00 0.00 75 1018.5